TimeEDT,TemperatureF,Dew PointF,Humidity,Sea Level PressureIn,VisibilityMPH,Wind Direction,Wind SpeedMPH,Gust SpeedMPH,PrecipitationIn,Events,Conditions,WindDirDegrees,DateUTC
12:54 AM,35.1,25.0,67,30.44,10.0,ENE,8.1,-,N/A,,Clear,70,2013-04-21 04:54:00
1:54 AM,34.0,24.1,67,30.45,10.0,East,8.1,-,N/A,,Clear,90,2013-04-21 05:54:00
2:54 AM,33.1,23.0,66,30.45,10.0,East,8.1,-,N/A,,Clear,90,2013-04-21 06:54:00
3:54 AM,32.0,23.0,69,30.46,10.0,East,8.1,-,N/A,,Clear,90,2013-04-21 07:54:00
4:54 AM,30.9,21.9,69,30.48,10.0,East,5.8,-,N/A,,Clear,90,2013-04-21 08:54:00
5:54 AM,30.9,21.0,67,30.49,10.0,East,5.8,-,N/A,,Clear,90,2013-04-21 09:54:00
6:54 AM,30.9,19.9,64,30.51,10.0,East,6.9,-,N/A,,Clear,90,2013-04-21 10:54:00
7:54 AM,33.1,21.9,64,30.53,10.0,East,8.1,-,N/A,,Clear,90,2013-04-21 11:54:00
8:54 AM,36.0,21.9,57,30.54,10.0,ESE,6.9,-,N/A,,Clear,120,2013-04-21 12:54:00
9:54 AM,39.0,19.0,45,30.55,10.0,SE,12.7,-,N/A,,Clear,130,2013-04-21 13:54:00
10:54 AM,42.1,23.0,47,30.54,10.0,ESE,12.7,-,N/A,,Clear,110,2013-04-21 14:54:00
11:54 AM,45.0,25.0,46,30.54,10.0,ESE,16.1,-,N/A,,Clear,120,2013-04-21 15:54:00
12:54 PM,46.9,26.1,44,30.52,10.0,SE,12.7,19.6,N/A,,Clear,140,2013-04-21 16:54:00
1:54 PM,46.9,26.1,44,30.50,10.0,ESE,10.4,18.4,N/A,,Clear,120,2013-04-21 17:54:00
2:54 PM,50.0,27.0,41,30.46,10.0,SE,9.2,-,N/A,,Clear,130,2013-04-21 18:54:00
3:54 PM,51.1,28.0,41,30.43,10.0,ESE,12.7,17.3,N/A,,Clear,110,2013-04-21 19:54:00
4:54 PM,52.0,28.0,40,30.40,10.0,SSE,11.5,-,N/A,,Clear,150,2013-04-21 20:54:00
5:54 PM,52.0,28.9,41,30.39,10.0,ESE,10.4,-,N/A,,Clear,110,2013-04-21 21:54:00
6:54 PM,52.0,28.9,41,30.39,10.0,SE,11.5,-,N/A,,Clear,130,2013-04-21 22:54:00
7:54 PM,48.9,28.9,46,30.39,10.0,ESE,11.5,-,N/A,,Clear,120,2013-04-21 23:54:00
8:54 PM,44.1,30.0,58,30.39,10.0,East,8.1,-,N/A,,Clear,100,2013-04-22 00:54:00
9:54 PM,45.0,30.9,58,30.39,10.0,East,10.4,-,N/A,,Clear,100,2013-04-22 01:54:00
10:54 PM,44.1,30.9,60,30.39,10.0,East,10.4,-,N/A,,Clear,100,2013-04-22 02:54:00
11:54 PM,42.1,30.9,65,30.37,10.0,East,9.2,-,N/A,,Clear,100,2013-04-22 03:54:00